星链-32172 (STARLINK-32172)

导读 | 豆包AI

STARLINK-32172是美国太空探索技术公司(SpaceX)于2024年10月15日发射的星链系列卫星,属于Starlink全球卫星互联网星座的组成部分。该星座旨在为全球偏远地区提供低延迟高速宽带服务,星链计划最终将部署数万颗低轨卫星,STARLINK-32172入轨后将参与星座组网,进一步拓展全球卫星互联网覆盖范围,推动全球互联互通。

基本信息
目录编号:
61518
目录名称:
STARLINK-32172
国际标识:
2024-183K
轨道中心:
EARTH
卫星名称:
星链-32172
卫星全名:
星链-32172 (STARLINK-32172)
卫星状态:
在轨 (已飞行563 天)
发射日期:
2024-10-15 UTC
国别 :
美国 (US)
星等 :
--
轨道信息
数据来源 国际轨道数据
星历时间: 2026-04-30T22:00:02+0800
13小时前
查看轨道信息
半长轴: 6848.863km
偏心率: 0.000132
轨道倾角: 53.159°
近地点辐角 85.656°
升交点赤经 261.285°
平近点角 114.829°
近地点: 469.821km
远地点: 471.631km
周期: 94.013分钟
每日圈数: 15.31705
详细信息
固有亮度:
5
最大亮度:
2.5
卫星平台:
Starlink V1.0
覆盖范围:
全球
运营商:
太空探索技术公司
运营商所在国:
美国
制造商(研发单位):
太空探索技术公司
制造商所在国:
美国
使用方式:
暂无
卫星简介
Starlink 计划是 SpaceX 推出的全球卫星互联网项目,通过发射低轨道卫星,为全球尤其是偏远地区提供高速、低延迟的互联网服务。自 2019 年起,Starlink 已部署数千颗卫星,旨在缩小全球数字鸿沟,推动互联网普及。该项目还为军事、航空等行业提供通信支持,带来广泛经济效益。
2D轨道图
3D轨道图
轨道高度分析图
轨道倾角分析图
轨道综合分析图
查看轨道综合分析图